This is the latest recevied weather packets stored in our database for station/object OE6JVE-13. If no packets are shown the sender has not sent any weather packets the latest 10 day(s).
| Time | Temp. | Humidity | Pressure | Rain* | Wind** | Luminosity | Snow |
|---|---|---|---|---|---|---|---|
| 1777894522 | 25.56° C | 33% | 1007.6 hPa | 0 mm | - | - | - |
| 1777893930 | 26.11° C | 33% | 1007.7 hPa | 0 mm | - | - | - |
| 1777893338 | 25.56° C | 33% | 1007.9 hPa | 0 mm | - | - | - |
| 1777892746 | 25° C | 34% | 1008 hPa | 0 mm | - | - | - |
| 1777892154 | 25° C | 35% | 1008.2 hPa | 0 mm | - | - | - |
| 1777891562 | 24.44° C | 35% | 1008.4 hPa | 0 mm | - | - | - |
| 1777890970 | 24.44° C | 35% | 1008.5 hPa | 0 mm | - | - | - |
| 1777890377 | 23.89° C | 35% | 1008.7 hPa | 0 mm | - | - | - |
| 1777889719 | 23.89° C | 36% | 1008.9 hPa | 0 mm | - | - | - |
| 1777889128 | 23.33° C | 36% | 1009 hPa | 0 mm | - | - | - |
| 1777888535 | 23.33° C | 39% | 1009.1 hPa | 0 mm | - | - | - |
| 1777887943 | 22.78° C | 41% | 1009.3 hPa | 0 mm | - | - | - |
| 1777887351 | 22.22° C | 40% | 1009.5 hPa | 0 mm | - | - | - |
| 1777886759 | 21.67° C | 44% | 1009.6 hPa | 0 mm | - | - | - |
| 1777886167 | 20.56° C | 45% | 1009.7 hPa | 0 mm | - | - | - |
| 1777885575 | 20° C | 47% | 1009.9 hPa | 0 mm | - | - | - |
| 1777884917 | 20° C | 48% | 1010 hPa | 0 mm | - | - | - |
| 1777884325 | 19.44° C | 51% | 1010 hPa | 0 mm | - | - | - |
| 1777883733 | 18.89° C | 55% | 1010.1 hPa | 0 mm | - | - | - |
| 1777883141 | 17.78° C | 59% | 1010.1 hPa | 0 mm | - | - | - |
| 1777882549 | 17.22° C | 59% | 1010.2 hPa | 0 mm | - | - | - |
| 1777881956 | 16.67° C | 65% | 1010.3 hPa | 0 mm | - | - | - |
| 1777881363 | 16.67° C | 65% | 1010.3 hPa | 0 mm | - | - | - |
| 1777880771 | 16.11° C | 65% | 1010.3 hPa | 0 mm | - | - | - |
| 1777880179 | 15° C | 68% | 1010.4 hPa | 0 mm | - | - | - |
* Rain latest hour (hover to see other rain measurements)
** Current wind speed in m/s (hover to see current wind gust speed)